Weather History for Van, Turkey

Change the Weather History Date:

Thursday, October 4, 2012

  Actual Average Record
Temperature  
Mean Temperature 62 °F -  
Max Temperature 73 °F 60 °F 75 °F (1999)
Min Temperature 52 °F 40 °F 37 °F (2011)
Degree Days  
Heating Degree Days 2    
Growing Degree Days 12 (Base 50)    
Moisture  
Dew Point 41 °F    
Average Humidity 41    
Maximum Humidity 63    
Minimum Humidity 17    
Precipitation  
Precipitation 0.00 in 0.06 in - ()
Sea Level Pressure  
Sea Level Pressure 30.09 in    
Wind  
Wind Speed 6 mph ()    
Max Wind Speed 14 mph    
Max Gust Speed -    
Visibility 6.4 miles    
Events      
Averages and records for this station are not official NWS values.
T = Trace of Precipitation, MM = Missing Value Source: Averaged Metar Reports

Daily Weather History Graph

Daily Weather History Graph

Search for Another Location

Airport:

Trip Planner

Search our weather history database for the weather conditions in past years. The results will help you decide how hot, cold, wet, or windy it might be!

Date:

Astronomy

Oct. 04, 2012 Rise Set
Actual Time 6:05 AM EEST 5:44 PM EEST
Civil Twilight 5:38 AM EEST 6:11 PM EEST
Nautical Twilight 5:08 AM EEST 6:41 PM EEST
Astronomical Twilight 4:37 AM EEST 7:12 PM EEST
Moon 8:07 PM EEST (10/4) 9:59 AM EEST (10/4)
Length of Visible Light 12h 32m
Length of Day
11h 39m
Waning Gibbous, 84% of the Moon is Illuminated
Oct 4
Waning Gibbous
Oct 8
Last Quarter
Oct 15
New
Oct 22
First Quarter
Oct 29
Full

Hourly Weather History & Observations

Time (EEST) Temp. Dew Point Humidity Pressure Visibility Wind Dir Wind Speed Gust Speed Precip Events Conditions
12:50 AM 60.8 °F 44.6 °F 55% 30.21 in 6.2 mi SW 4.6 mph - N/A   Mostly Cloudy
1:50 AM 57.2 °F 44.6 °F 63% 30.15 in 6.2 mi ENE 8.1 mph - N/A   Mostly Cloudy
2:50 AM 59.0 °F 41.0 °F 51% 30.15 in 6.2 mi NNE 6.9 mph - N/A   Mostly Cloudy
3:00 AM 59 °F 41 °F 39%  in 6 mi NNE 8.1 mph - -   Partly Cloudy
3:50 AM 57.2 °F 41.0 °F 55% 30.12 in 6.2 mi NE 6.9 mph - N/A   Mostly Cloudy
4:50 AM 55.4 °F 41.0 °F 58% 30.15 in 6.2 mi Variable 1.2 mph - N/A   Mostly Cloudy
5:50 AM 55.4 °F 39.2 °F 54% 30.15 in 6.2 mi Variable 3.5 mph - N/A   Mostly Cloudy
6:50 AM 60.8 °F 39.2 °F 45% 30.15 in 6.2 mi South 6.9 mph - N/A   Mostly Cloudy
7:50 AM 62.6 °F 39.2 °F 42% 30.12 in 6.2 mi Variable 2.3 mph - N/A   Scattered Clouds
8:50 AM 66.2 °F 41.0 °F 40% 30.12 in 6.2 mi WNW 5.8 mph - N/A   Scattered Clouds
9:00 AM 67 °F 40 °F 26%  in 12 mi WNW 5.8 mph - -   Partly Cloudy
9:50 AM 68.0 °F 42.8 °F 40% 30.12 in 6.2 mi WNW 3.5 mph - N/A   Scattered Clouds
10:50 AM 69.8 °F 42.8 °F 38% 30.12 in 6.2 mi West 6.9 mph - N/A   Mostly Cloudy
11:50 AM 69.8 °F 46.4 °F 43% 30.09 in 6.2 mi NW 9.2 mph - N/A   Mostly Cloudy
12:50 PM 71.6 °F 50.0 °F 46% 30.06 in 6.2 mi NW 8.1 mph - N/A   Mostly Cloudy
1:50 PM 69.8 °F 50.0 °F 49% 30.06 in 6.2 mi NW 12.7 mph - N/A   Mostly Cloudy
2:50 PM 73.4 °F 37.4 °F 27% 30.04 in 6.2 mi North 3.5 mph - N/A   Mostly Cloudy
3:00 PM 73 °F 38 °F 17%  in 6 mi North 3.5 mph - -   Partly Cloudy
3:50 PM 69.8 °F 48.2 °F 46% 30.04 in 6.2 mi NW 9.2 mph - N/A   Mostly Cloudy
4:50 PM 69.8 °F 44.6 °F 40% 30.04 in 6.2 mi North 4.6 mph - N/A   Mostly Cloudy
5:50 PM 68.0 °F 37.4 °F 33% 30.01 in 6.2 mi South 5.8 mph - N/A   Mostly Cloudy
6:50 PM 68.0 °F 37.4 °F 33% 30.01 in 6.2 mi SE 13.8 mph - N/A   Mostly Cloudy
7:50 PM 66.2 °F 37.4 °F 35% 30.04 in 6.2 mi SE 13.8 mph - N/A   Scattered Clouds
8:50 PM 66.2 °F 37.4 °F 35% 30.04 in 6.2 mi SE 13.8 mph - N/A   Scattered Clouds
9:00 PM 66 °F 36 °F 22%  in 6 mi SE 13.8 mph - -   Partly Cloudy
9:50 PM 66.2 °F 35.6 °F 32% 30.04 in 6.2 mi SE 10.4 mph - N/A   Scattered Clouds
10:50 PM 64.4 °F 35.6 °F 34% 30.04 in 6.2 mi SE 11.5 mph - N/A   Scattered Clouds
11:50 PM 62.6 °F 35.6 °F 37% 30.04 in 6.2 mi SE 10.4 mph - N/A   Partly Cloudy